Theta_e
297 297 297 297 297 298 298 298 299 299 300 301 301 302 308 313 313 312 314 313 313 314 312 311 312 312 313 313 313 313 314 313 313 314 313 312 312 311 312 312 312 312 313 313 313 313 313 312 313 313 312 313 313 313 314 313 312 312 311 312 314 314 312 312 312 312 312 312 312 312 313 313 313 313 313 313 313 313 314 314 314 314 313 313 315 317 318
297 297 296 297 297 298 298 298 299 299 300 301 300 303 310 314 313 313 313 312 311 312 311 311 310 311 313 313 312 313 313 313 313 312 312 312 312 312 312 312 313 312 312 313 313 312 313 312 312 312 312 313 314 313 313 312 311 311 313 314 313 313 312 312 312 312 312 312 311 310 311 312 312 313 313 314 313 313 314 313 313 314 313 313 314 316 316
297 296 296 296 297 297 298 298 299 299 299 300 301 305 310 313 312 312 311 311 310 310 310 310 309 311 312 312 312 312 312 313 313 312 312 312 312 312 313 313 313 312 312 313 313 312 313 312 312 312 312 312 313 313 313 312 312 313 314 314 313 313 313 313 312 312 312 312 311 311 311 312 312 313 314 314 313 313 313 312 313 315 314 314 314 314 315
297 296 296 296 297 297 297 298 298 299 300 301 303 307 311 313 312 311 311 311 311 310 309 309 309 311 312 312 312 312 312 313 312 312 311 312 311 312 312 312 312 312 312 312 312 312 312 312 312 311 312 312 312 313 312 312 313 314 314 313 312 312 312 312 312 312 312 311 310 311 312 312 312 312 312 313 313 313 313 312 313 314 314 314 314 314 315
297 296 296 296 297 297 297 297 298 299 300 301 304 309 312 311 311 311 311 311 311 311 311 310 310 311 311 311 311 312 313 312 311 312 311 311 311 311 311 311 311 311 311 312 312 312 311 312 312 311 311 311 311 312 312 312 313 313 312 311 311 310 310 311 311 311 311 310 310 311 311 311 311 312 312 312 313 313 313 314 313 313 313 313 313 314 315
297 296 296 296 296 296 296 297 297 298 300 302 305 310 310 309 310 311 309 309 311 311 311 311 311 311 311 311 312 312 312 312 312 311 311 311 311 311 310 310 310 310 311 311 311 311 311 312 312 312 311 310 311 311 311 312 312 311 310 311 310 309 310 310 311 311 310 310 310 311 311 311 311 311 311 312 312 313 314 314 313 313 313 313 313 315 314
297 297 296 296 296 296 296 297 297 298 300 302 304 307 308 308 310 309 308 310 312 311 310 311 310 310 311 311 311 311 312 312 312 311 311 311 311 311 311 310 309 310 310 310 311 313 314 314 315 315 314 312 312 312 311 312 312 311 310 311 311 311 311 311 311 311 311 311 311 311 311 311 311 311 312 311 312 312 313 313 312 313 314 313 313 315 315
297 297 296 296 296 296 296 296 296 296 299 302 303 303 305 307 308 308 308 311 312 309 309 310 309 310 310 310 310 310 311 311 311 311 311 310 310 311 311 310 311 311 310 310 311 313 314 314 314 315 314 314 313 313 312 312 312 311 311 311 312 311 311 312 312 312 311 311 311 310 310 310 310 310 311 311 312 312 312 313 314 313 313 313 314 315 315
297 297 296 295 295 295 295 295 296 295 297 302 304 301 301 304 307 307 309 310 309 307 308 310 309 309 310 310 309 310 310 310 310 310 309 309 309 310 310 310 311 311 311 311 311 311 312 311 311 312 312 312 313 312 312 312 311 311 311 311 312 311 311 311 311 311 311 310 310 310 310 310 310 311 311 311 312 312 312 312 313 313 314 314 314 314 313
297 297 296 296 295 295 295 295 295 295 295 300 303 301 299 301 304 307 308 309 308 307 307 309 309 309 309 309 309 309 309 309 309 309 309 309 308 308 308 309 310 310 311 310 309 309 309 309 309 309 309 310 311 311 311 311 310 310 311 311 311 311 310 310 310 310 310 310 310 310 310 310 310 311 311 311 311 311 312 312 312 313 313 313 313 312 311
297 297 296 296 295 295 295 295 294 294 294 298 302 302 299 300 303 306 308 308 308 307 307 308 307 308 308 308 308 308 308 309 309 308 308 309 309 308 308 308 309 309 308 307 307 307 308 308 308 308 308 309 309 309 309 309 309 310 310 310 310 310 310 310 309 309 309 310 310 310 310 310 311 311 311 311 310 311 311 312 312 311 312 312 311 311 311
297 297 296 296 295 295 295 294 294 294 294 296 301 302 297 297 302 306 307 307 307 306 306 306 306 306 307 306 307 307 307 308 308 307 308 309 309 308 307 307 308 307 306 306 307 307 308 308 308 308 308 308 308 308 308 308 308 309 309 309 309 309 309 308 308 308 309 309 309 310 310 310 310 310 310 310 310 310 310 310 310 309 310 310 310 310 310
297 297 296 296 296 295 295 294 294 294 294 296 301 301 296 294 300 305 306 307 307 305 305 306 306 306 306 306 306 306 307 306 306 306 307 308 308 308 307 306 306 305 305 305 306 307 307 307 307 307 308 308 308 308 307 308 308 308 309 309 309 309 308 308 308 308 309 309 309 309 310 309 309 310 310 310 309 309 309 308 308 309 309 309 309 309 309
297 297 297 296 296 295 294 294 294 294 295 297 301 302 296 292 298 303 305 306 306 305 305 305 305 305 305 306 306 306 306 306 306 306 306 307 307 307 306 305 304 304 304 304 305 306 306 306 306 306 307 307 308 308 308 307 308 308 308 308 309 308 308 308 308 308 308 308 308 309 309 308 309 310 310 310 310 309 309 308 308 308 308 308 308 308 308
296 297 297 296 296 295 294 295 294 294 295 298 301 302 298 292 295 301 304 306 305 305 304 302 302 303 305 305 305 304 305 306 306 306 306 306 306 305 304 304 303 303 303 304 305 305 305 305 306 306 306 306 307 307 307 307 308 308 308 308 308 308 308 308 308 307 307 307 307 308 308 308 309 309 309 309 309 309 308 307 307 308 307 307 307 307 307
296 297 296 296 296 295 294 294 294 294 295 297 300 302 299 294 293 298 303 305 305 304 302 301 301 304 305 305 305 304 304 305 304 305 305 305 305 304 304 303 302 303 303 304 305 305 304 305 305 306 306 306 306 306 306 306 307 307 307 307 307 308 307 307 307 307 307 307 307 307 307 307 308 309 308 308 308 308 307 306 306 307 307 306 306 306 306
296 296 296 296 295 295 294 294 294 294 296 298 300 301 300 295 293 297 302 305 304 303 301 300 301 303 303 303 303 303 303 304 304 303 304 305 305 304 303 302 302 303 303 303 304 305 304 304 305 305 306 305 305 306 306 306 306 306 306 306 306 307 307 306 306 306 307 307 307 306 306 307 308 307 306 307 307 307 306 306 305 305 306 306 306 305 305
296 296 296 296 295 295 294 294 294 295 297 299 300 301 301 297 294 297 302 304 304 303 301 300 301 301 301 301 302 302 301 303 304 304 304 304 304 303 303 302 302 303 303 303 303 304 304 304 305 305 305 305 305 305 305 305 306 306 306 305 305 306 306 306 306 306 306 306 306 306 306 306 306 306 306 306 306 306 305 305 304 304 305 305 305 305 305
296 296 296 296 295 295 294 294 294 294 297 299 300 300 301 299 295 296 301 304 304 303 300 299 300 300 300 301 303 303 302 302 303 303 303 303 302 302 303 303 302 302 303 303 303 304 304 304 305 304 304 305 305 305 305 305 305 305 305 305 305 305 305 306 306 305 305 306 305 305 306 304 304 304 305 305 305 305 304 303 303 303 304 304 303 304 304
295 296 296 296 296 295 295 294 293 294 296 298 299 300 301 299 295 296 300 302 303 302 300 298 299 299 299 301 301 301 302 302 302 302 303 302 302 302 303 303 302 302 303 303 303 303 303 303 304 303 303 304 304 304 304 304 304 304 304 304 305 305 304 304 305 304 305 305 305 305 305 303 303 303 304 303 303 303 303 302 303 303 303 303 303 303 303
295 295 296 296 296 295 295 294 293 293 295 296 298 300 300 299 297 297 299 300 301 301 299 298 298 299 299 299 300 299 300 301 301 302 302 302 302 302 302 302 302 302 302 302 302 302 302 302 302 303 302 303 303 303 303 303 304 304 304 304 303 304 303 303 304 304 303 304 304 304 303 302 302 303 302 302 302 302 302 302 302 302 302 302 302 302 302
295 295 295 295 296 295 295 294 293 293 294 295 297 299 300 299 298 298 299 300 300 300 299 298 299 299 298 299 299 298 299 299 299 300 301 301 302 301 301 302 302 301 301 301 302 302 302 301 302 302 301 302 302 302 302 302 302 303 303 303 302 302 303 303 302 303 303 303 303 303 302 302 302 301 301 301 301 301 301 301 301 301 301 301 301 301 301
295 295 295 295 295 295 294 294 293 293 294 295 297 299 300 299 298 298 299 299 300 300 300 300 299 299 299 298 298 298 298 299 299 299 300 301 301 301 301 302 301 301 301 301 301 301 300 300 301 300 300 301 301 301 301 301 302 302 302 302 302 302 302 302 301 301 302 302 302 302 302 301 301 300 301 301 300 300 300 300 300 300 300 300 300 300 300
295 295 295 295 295 295 294 293 293 292 294 296 298 299 299 299 298 298 299 299 299 300 300 299 299 298 298 297 297 298 298 298 298 299 299 300 301 300 300 301 301 301 301 301 300 300 300 300 300 300 300 300 301 300 300 301 301 301 301 301 302 301 301 301 301 301 300 300 301 301 301 300 300 300 300 300 300 300 299 299 299 299 299 299 299 299 299
295 295 295 295 295 295 294 293 292 292 294 295 297 298 299 299 298 298 298 299 299 300 300 299 298 297 297 297 297 297 297 297 297 298 298 299 299 299 299 300 300 300 300 300 299 300 300 299 300 300 299 300 300 300 300 300 300 300 300 300 301 300 300 299 300 300 300 300 300 300 299 299 299 299 299 299 299 299 299 299 298 299 299 299 299 299 299
295 295 295 295 295 294 294 292 292 292 293 295 296 298 299 298 298 297 298 299 300 300 300 300 299 297 297 298 298 297 297 297 297 297 298 298 298 298 299 299 299 300 300 299 299 300 299 299 299 299 299 300 300 299 300 300 300 300 300 300 300 300 300 299 299 299 299 299 300 299 299 299 299 299 299 299 298 298 298 298 298 298 298 298 298 298 299
295 295 295 295 295 294 293 292 292 292 294 295 297 298 299 298 298 297 297 298 300 300 299 300 299 298 298 298 297 297 297 297 297 297 298 298 298 298 298 299 299 299 300 299 299 299 299 299 299 299 299 299 300 299 299 300 300 299 299 300 300 300 299 299 299 298 298 299 299 298 298 298 298 298 298 298 298 298 299 299 299 299 299 299 299 299 299
295 295 295 295 295 294 293 292 292 294 295 296 297 299 299 298 299 298 296 296 298 300 299 299 299 299 299 298 297 297 297 297 297 297 297 297 298 297 298 298 299 299 299 299 299 299 299 299 299 299 299 299 299 299 299 299 299 299 299 299 299 299 299 299 298 298 298 298 298 298 298 298 298 298 298 298 298 298 299 299 300 300 299 299 299 299 299
295 295 295 295 295 294 293 293 293 295 297 298 298 300 299 299 299 299 296 295 297 299 299 298 298 298 298 298 297 298 297 297 297 297 297 297 298 297 297 298 298 298 298 298 298 299 299 299 298 298 299 299 298 298 298 298 298 298 299 299 299 298 298 298 298 297 298 298 298 298 298 298 298 298 298 298 299 299 299 299 299 299 299 299 298 298 298
295 295 295 295 294 294 294 293 293 296 297 298 299 300 300 300 300 299 295 295 297 299 299 299 299 298 298 298 297 297 297 297 297 297 297 297 297 297 297 297 297 297 298 298 298 298 298 298 298 298 299 299 298 297 297 297 297 298 298 298 298 298 298 297 297 298 298 298 298 298 298 298 298 298 299 299 299 299 299 298 298 298 298 298 298 298 297
295 295 295 295 295 294 294 293 294 295 297 298 298 300 300 300 299 296 294 295 298 299 299 300 299 298 297 298 297 297 297 297 297 297 297 297 297 297 297 297 297 297 297 297 297 297 297 298 298 298 299 299 298 297 297 297 297 297 298 298 298 297 297 298 298 298 298 298 298 298 298 298 298 298 298 298 298 298 298 298 298 298 297 298 297 297 297
295 295 295 294 294 294 294 293 294 296 297 298 297 297 297 296 295 294 293 296 298 299 300 299 298 298 298 298 297 297 296 297 297 297 297 298 297 297 297 296 297 297 297 296 296 296 297 297 297 297 298 298 297 297 297 296 297 297 298 298 297 297 297 297 298 298 298 298 298 298 298 298 298 298 298 298 297 297 297 297 297 297 297 297 297 297 297
295 295 294 294 295 295 294 294 295 297 298 298 298 298 296 294 293 293 294 296 298 299 299 298 297 297 297 297 298 298 297 297 298 298 298 298 297 296 297 297 297 297 297 296 296 296 297 297 297 297 298 298 297 297 296 297 297 297 297 297 297 297 297 297 298 298 298 298 298 298 298 298 298 298 298 297 297 297 297 297 297 297 297 296 296 296 296
295 295 294 295 296 296 296 296 297 298 298 298 299 300 297 294 293 293 293 296 298 299 297 297 297 298 298 298 298 298 297 297 298 298 298 298 297 296 297 297 297 297 297 296 296 297 297 297 297 297 297 298 297 296 296 297 297 297 297 297 297 297 297 298 298 298 298 298 297 298 298 297 298 298 297 297 297 297 297 297 296 296 295 295 295 295 294
295 295 295 297 297 298 298 298 297 298 299 300 300 300 297 294 293 293 294 297 299 300 299 298 297 297 298 298 298 297 297 298 298 298 298 298 297 297 297 297 296 297 297 297 297 297 297 297 297 297 297 297 296 296 296 297 297 297 296 297 297 297 298 299 298 298 298 298 297 298 298 297 298 297 297 297 297 296 296 296 295 294 294 294 294 293 293
295 295 296 298 298 298 299 299 298 298 299 299 298 297 295 293 293 293 294 296 298 299 299 299 298 298 298 298 298 298 297 298 298 298 297 297 297 297 297 296 296 296 297 297 296 296 297 297 296 296 296 296 296 296 297 297 297 297 297 297 297 297 298 298 298 298 298 297 297 297 297 297 297 297 297 297 296 296 295 294 294 294 293 293 293 293 292
296 297 298 299 299 299 300 300 299 299 298 297 295 295 295 294 294 296 296 297 297 298 298 298 299 299 298 297 298 298 298 297 298 297 297 297 297 297 296 296 296 296 296 296 296 297 297 296 296 295 296 296 296 297 297 296 296 297 297 297 297 297 298 298 297 297 297 297 297 297 297 297 297 297 296 296 296 295 294 294 293 293 293 292 292 292 291
296 298 299 300 300 300 300 300 299 298 297 295 294 296 297 298 297 298 299 298 298 298 298 298 298 298 298 298 298 298 297 297 297 297 297 297 297 297 297 296 296 296 296 296 296 296 296 296 295 295 296 296 297 297 296 296 296 296 296 297 297 298 298 297 297 297 297 297 297 297 297 297 297 296 296 295 295 294 294 293 293 292 292 292 292 291 291
297 298 299 300 300 299 299 299 297 296 296 296 297 298 299 298 297 298 298 298 298 298 298 298 298 298 298 298 298 297 297 297 297 297 298 297 296 296 296 296 296 296 295 295 295 296 295 296 296 295 296 297 297 296 296 296 296 296 296 296 297 298 298 297 297 297 297 297 297 297 297 296 296 295 295 295 295 294 294 293 292 292 292 291 291 291 291
298 298 299 299 299 299 298 298 297 296 297 298 299 298 298 297 297 298 298 297 298 298 298 298 298 298 298 298 298 298 298 297 297 297 297 296 296 296 296 295 296 296 295 295 296 296 295 295 295 295 295 296 296 296 296 296 295 296 296 296 297 297 298 297 297 297 297 296 296 296 296 295 295 295 295 295 294 294 293 293 292 292 292 291 291 291 291
297 297 297 297 298 297 297 297 297 297 298 298 298 297 297 297 297 298 297 297 297 298 298 298 298 298 298 298 298 298 298 298 297 297 296 296 296 296 296 296 296 295 294 295 296 296 295 295 294 295 295 296 296 296 296 295 295 295 295 296 297 297 298 297 297 297 296 296 296 296 295 295 295 295 295 294 294 293 293 292 292 291 291 291 291 291 291
295 296 296 296 297 297 298 298 298 298 297 297 297 297 297 297 297 297 297 297 298 298 298 298 298 298 298 298 297 297 297 297 297 296 296 296 296 295 295 295 295 294 294 295 296 296 295 294 294 295 296 296 295 295 295 295 294 295 295 296 297 297 297 297 297 296 296 295 295 295 295 295 295 295 294 294 294 293 292 291 291 290 289 289 289 289 290
296 296 297 297 297 298 297 297 298 297 297 296 295 296 296 297 297 297 298 298 298 298 298 298 298 298 297 297 297 297 297 297 296 296 296 296 296 296 295 295 294 294 295 296 296 295 295 294 294 295 296 296 295 295 295 294 293 294 295 296 297 297 297 297 296 296 295 295 295 295 295 295 295 294 294 294 294 294 292 291 290 289 289 289 289 288 288
297 298 298 298 297 297 296 297 297 297 296 296 296 296 297 298 298 298 298 298 298 298 298 298 298 297 297 297 297 297 297 297 296 296 296 296 296 295 295 294 295 295 296 296 295 295 295 295 295 296 296 296 295 295 294 293 292 294 295 296 297 297 297 296 296 296 295 295 295 295 295 295 294 294 294 294 294 294 293 292 291 291 291 290 290 290 289
297 297 297 297 297 296 295 296 296 297 297 297 297 297 298 298 299 299 299 298 298 298 298 298 298 297 297 297 297 296 297 297 296 296 296 296 295 295 295 295 295 296 295 295 295 295 295 295 296 296 296 295 294 294 293 292 292 294 296 296 297 297 297 296 296 296 295 295 295 295 295 294 294 293 293 293 293 293 293 292 292 291 291 291 290 291 291
297 297 296 296 296 296 296 296 296 297 298 298 298 298 299 299 300 299 299 299 298 298 298 298 297 297 297 297 297 297 296 296 296 296 296 296 295 295 296 295 295 295 294 294 294 294 294 295 296 296 295 294 293 293 292 292 293 295 296 296 297 297 297 296 296 296 296 295 295 295 295 294 293 292 292 292 292 292 292 292 291 291 291 290 290 290 291
296 296 296 296 296 296 296 296 297 298 298 299 300 299 299 299 299 299 299 298 298 298 297 297 297 297 297 297 297 297 297 296 296 296 296 295 295 295 296 295 294 294 294 294 294 294 294 295 296 295 294 293 293 292 292 292 293 295 296 296 296 297 296 296 296 296 295 295 295 295 295 294 294 293 292 292 292 292 292 291 290 290 290 290 289 289 289
295 296 296 296 297 297 297 298 298 299 299 300 299 299 299 299 299 299 298 298 298 297 297 297 297 297 297 296 296 297 297 296 296 296 296 296 295 295 295 294 294 294 294 294 294 295 295 296 295 294 294 293 293 293 293 293 293 295 296 296 296 297 296 296 296 296 295 295 295 295 295 295 294 293 293 292 292 292 292 291 290 290 290 290 288 287 287
295 295 295 296 296 297 298 298 299 299 299 299 299 299 299 299 299 298 298 298 297 297 297 297 296 296 296 296 296 296 296 296 296 295 296 295 295 294 294 294 294 294 294 295 295 296 296 296 295 294 294 294 293 293 293 293 293 294 295 296 296 296 296 296 296 296 295 295 295 295 295 295 295 294 293 293 292 291 291 291 291 290 290 289 289 287 286
294 294 295 295 296 297 298 298 298 299 299 299 299 299 299 299 298 298 298 298 297 297 297 296 296 296 296 296 296 295 296 296 296 295 295 295 295 295 295 294 294 294 295 296 296 296 296 296 295 295 295 294 294 293 293 293 293 294 295 296 296 296 296 296 296 296 295 295 296 295 295 295 295 294 293 293 292 291 291 290 291 291 290 290 289 289 288
294 294 295 296 296 297 297 297 298 298 299 299 299 299 299 298 298 298 298 297 297 297 297 296 296 296 296 295 295 295 296 296 295 295 295 295 295 295 295 295 295 295 296 296 296 296 295 295 295 295 294 294 294 294 293 293 293 294 295 296 296 296 296 296 296 296 296 295 295 295 295 295 295 294 294 292 292 292 292 291 291 291 291 291 290 290 290
294 295 295 296 296 297 297 297 297 298 298 298 298 298 298 298 298 297 297 297 297 297 297 297 296 296 295 295 296 295 295 295 295 295 295 296 296 296 296 296 296 296 296 296 296 295 295 295 295 294 294 294 294 294 294 294 294 294 295 296 296 296 297 296 296 296 296 295 295 295 295 295 295 295 294 293 292 293 294 293 291 291 291 291 291 290 290
Wind_Speed
27 27 27 27 27 26 25 24 23 23 23 19 15 13 9 9 7 4 8 8 9 9 7 7 8 7 10 14 16 15 9 8 11 12 11 8 6 8 8 6 6 7 6 6 7 7 6 8 8 7 6 1 8 7 4 2 1 0 5 4 5 4 3 5 7 7 9 11 13 14 10 6 7 8 6 7 8 7 7 6 5 5 6 5 5 4 1
28 27 28 28 27 26 25 23 21 19 21 22 19 15 11 12 11 6 6 6 9 10 7 6 7 8 12 14 15 16 13 10 10 11 10 9 7 7 7 6 6 6 7 7 8 7 5 6 7 8 7 2 7 6 5 2 2 1 2 3 4 2 3 4 6 6 6 8 8 9 9 6 4 4 6 7 9 11 9 6 5 5 6 7 7 5 1
28 28 28 28 28 27 26 24 20 17 18 19 17 15 13 12 11 10 10 9 10 11 9 8 7 7 10 11 11 13 12 10 11 11 11 10 8 6 6 7 8 7 7 7 7 6 6 6 5 8 7 2 5 4 3 1 2 7 9 6 2 3 3 3 5 6 5 6 4 3 3 3 3 5 7 8 9 11 8 4 5 5 5 6 7 5 1
27 28 28 29 29 27 27 25 20 18 17 16 15 13 11 9 6 6 8 7 8 12 14 13 10 7 9 9 8 9 9 10 11 8 9 12 10 7 7 8 8 7 7 8 8 7 8 8 6 7 7 4 4 6 4 2 6 10 9 5 2 4 4 6 8 8 8 9 9 9 8 7 7 8 10 11 9 9 6 4 5 5 5 6 7 6 3
27 27 28 29 29 28 27 26 22 21 18 14 13 11 9 8 4 4 3 4 7 9 10 9 8 6 7 6 6 8 9 10 7 4 5 11 9 6 8 9 8 6 7 7 7 8 9 9 10 9 9 7 1 7 3 2 7 7 3 2 2 3 5 8 11 12 13 14 15 15 13 12 12 12 13 13 12 10 6 5 7 7 6 6 6 7 9
27 27 27 28 29 29 29 27 25 23 18 13 12 11 7 6 6 6 8 5 6 4 5 7 8 7 6 5 6 7 7 8 7 4 3 8 7 4 6 9 9 9 9 7 6 8 9 9 9 9 9 7 0 5 3 2 7 4 4 4 3 4 6 8 11 13 14 15 15 15 14 13 14 14 14 13 14 13 10 9 10 10 8 8 8 9 11
27 27 27 28 29 29 29 28 27 24 17 14 17 15 13 12 9 10 13 9 7 6 9 9 9 8 5 3 4 6 7 7 8 6 3 5 8 7 6 7 9 10 11 9 5 3 4 5 6 8 7 6 4 3 3 2 5 4 4 4 3 3 5 6 9 12 13 14 14 14 14 13 14 15 15 14 14 15 14 12 12 12 12 13 13 12 12
27 27 27 27 28 29 29 28 29 26 17 16 22 19 15 14 10 11 15 12 8 8 8 7 7 6 3 2 3 5 6 5 6 7 4 3 7 8 7 8 11 12 12 8 3 6 6 5 6 8 8 5 4 5 4 3 4 4 4 3 3 2 3 5 6 8 10 12 13 13 13 14 15 15 14 14 14 15 14 12 10 11 11 12 12 11 9
26 27 27 27 27 28 29 28 29 28 21 18 20 19 17 14 9 9 12 9 6 8 7 6 5 3 3 4 5 4 4 5 5 5 3 3 5 7 9 10 11 11 9 6 8 8 6 6 7 8 8 6 4 4 4 4 5 5 6 4 3 3 3 5 5 7 8 9 12 13 13 14 15 15 13 13 13 12 11 10 9 8 8 9 9 9 7
25 26 26 27 26 27 28 28 27 27 24 22 20 20 22 17 11 11 11 8 8 8 6 3 3 3 5 6 6 6 6 6 5 4 4 5 5 4 8 11 9 6 6 9 10 9 7 7 8 9 9 9 8 7 7 8 7 5 4 4 3 3 4 5 5 6 7 9 11 11 10 10 11 9 8 10 11 10 11 11 10 10 9 8 7 7 8
24 25 25 26 26 26 26 26 26 25 24 23 20 18 23 20 15 16 13 8 7 6 5 5 5 5 7 9 8 8 7 7 7 6 6 8 8 6 8 12 9 3 7 10 11 10 9 9 10 10 11 13 12 11 12 12 11 8 6 4 4 5 6 6 6 6 7 10 11 10 8 8 6 5 4 7 9 10 9 9 9 10 9 8 8 9 10
24 23 24 25 25 25 25 24 25 24 21 20 18 16 21 20 15 15 12 7 5 6 6 5 6 6 8 9 8 8 7 7 8 8 6 8 10 8 7 10 9 6 9 12 12 11 11 11 11 12 13 14 14 15 14 13 13 13 12 9 7 6 6 6 5 6 7 8 8 8 8 6 5 7 6 5 7 8 8 9 11 11 11 12 11 11 10
23 23 24 24 24 24 24 23 23 22 19 18 18 17 21 20 15 14 12 7 5 7 6 6 10 11 10 8 8 7 6 6 6 7 6 7 9 8 6 6 8 10 12 13 13 11 9 8 8 10 10 11 12 13 15 15 14 15 15 13 9 7 6 5 5 6 6 6 7 8 8 7 8 8 6 5 3 5 7 8 8 8 10 12 12 10 9
23 23 23 24 24 23 23 22 21 21 18 17 17 16 20 20 17 15 13 8 6 9 10 7 9 12 11 8 8 7 6 5 4 4 5 4 6 8 7 7 9 11 12 12 10 8 5 4 5 6 6 8 8 10 12 14 14 15 15 13 11 8 6 5 5 6 6 7 8 8 9 11 9 5 7 7 4 4 4 4 5 7 8 8 9 10 10
22 23 23 23 23 23 22 22 21 20 17 15 15 15 20 21 16 12 12 9 7 7 11 8 8 11 11 9 7 6 5 3 3 3 3 1 4 7 5 5 8 10 11 9 6 4 4 4 5 5 4 5 6 7 7 8 10 12 13 12 11 9 7 6 6 6 6 7 7 7 8 7 2 5 8 8 8 8 6 4 4 5 6 9 10 10 12
22 23 23 23 23 22 22 21 20 20 17 13 14 13 19 21 16 10 10 10 8 4 10 11 12 12 10 9 8 7 6 4 3 4 2 0 3 6 3 4 7 9 8 7 5 3 3 4 4 5 5 6 6 6 6 6 6 3 3 5 9 9 7 6 6 6 6 6 6 7 6 2 4 6 6 8 9 7 5 3 2 6 12 13 9 8 11
22 22 23 23 22 22 22 20 20 20 16 14 15 13 17 22 18 10 9 11 7 5 10 12 13 11 8 7 8 8 7 7 6 6 3 1 2 5 7 10 8 6 5 5 5 4 4 4 4 5 5 6 6 5 5 6 5 1 3 2 6 7 6 6 7 7 7 7 7 6 4 2 6 7 6 8 9 7 5 4 1 8 13 11 8 9 10
21 22 22 22 22 21 21 19 19 19 15 13 14 12 14 23 18 9 9 12 7 7 12 12 11 10 9 8 8 7 7 8 8 6 5 4 7 8 10 12 8 3 2 4 4 3 4 4 4 5 5 5 4 4 4 4 4 2 1 3 3 4 5 6 7 8 8 8 8 6 1 3 6 9 8 7 6 4 3 3 2 6 11 10 10 11 11
21 21 22 22 21 21 21 19 18 17 14 12 13 12 13 22 18 10 11 14 10 8 12 12 11 11 10 9 8 8 8 7 8 7 4 4 9 11 10 7 5 5 5 5 3 3 4 4 3 4 5 5 3 4 6 5 3 3 3 4 4 3 4 5 6 7 7 5 7 7 3 1 5 9 9 7 4 1 2 5 6 8 10 11 11 11 12
21 21 21 22 21 21 21 18 16 15 13 11 13 13 11 16 16 15 15 15 11 7 11 13 11 10 10 10 9 10 9 7 8 8 5 5 10 12 6 2 5 7 6 4 4 3 2 4 3 3 4 4 2 3 5 5 5 5 4 5 4 2 3 5 5 5 5 5 7 6 2 1 5 7 6 6 4 3 5 9 11 11 12 13 12 13 13
21 21 21 22 21 21 20 18 16 14 11 10 10 12 12 14 14 14 13 13 10 8 9 11 10 9 9 8 8 9 10 8 7 8 7 8 11 8 3 4 7 6 4 5 5 3 3 4 4 2 4 4 1 1 4 4 5 4 3 4 5 3 3 5 3 2 2 4 4 1 3 5 6 7 6 5 6 7 9 11 12 13 13 14 14 14 15
21 22 22 22 21 21 20 18 15 13 12 11 8 9 12 15 13 12 11 9 6 5 6 6 6 6 6 7 7 8 8 7 6 7 8 8 9 6 4 7 9 7 7 7 5 3 3 4 4 3 4 4 3 4 5 4 3 1 2 2 3 3 4 4 3 1 2 5 5 4 5 7 7 10 8 6 7 9 11 13 14 15 15 16 16 16 17
21 23 23 23 22 21 20 17 14 12 12 12 9 8 11 14 14 15 14 7 3 4 5 3 3 2 3 6 7 6 5 6 6 6 7 6 6 5 6 8 8 7 8 7 5 5 5 4 4 4 4 4 5 5 5 5 5 3 2 3 1 9 11 7 4 4 5 7 7 8 10 11 12 11 10 10 11 13 13 14 15 16 16 17 17 18 19
20 22 23 22 22 21 19 17 13 11 10 10 11 12 13 13 14 17 15 7 4 5 3 1 4 5 3 5 6 3 4 5 6 5 5 6 6 5 6 8 8 6 6 7 6 7 6 5 5 4 4 4 5 4 4 4 3 4 5 3 1 11 12 7 6 6 6 6 6 8 12 14 14 13 13 13 13 14 14 15 16 17 18 18 19 20 21
20 22 22 22 21 20 19 16 12 9 8 7 8 11 12 12 14 16 12 8 8 8 3 4 6 4 1 2 4 5 5 5 5 4 4 4 5 5 6 7 7 5 5 7 7 8 7 5 3 4 4 3 4 3 4 4 3 4 4 4 3 7 9 6 7 6 6 7 8 11 15 15 13 12 13 13 15 16 17 18 19 20 20 21 21 22 23
20 21 20 21 20 19 18 15 11 9 9 6 5 9 10 11 13 14 12 10 11 10 5 3 6 5 2 2 3 4 4 4 4 4 4 3 3 3 4 5 5 5 5 6 7 8 7 5 3 4 3 3 4 4 4 4 6 6 4 5 7 7 7 6 6 6 7 7 8 12 15 12 11 12 14 15 17 19 20 20 21 22 22 22 22 23 23
19 19 19 19 19 18 16 14 10 9 10 7 6 8 8 9 12 12 13 13 10 6 3 4 6 5 4 4 3 3 3 4 4 4 4 3 2 2 4 5 5 5 6 6 5 5 6 5 3 3 4 4 5 5 6 5 5 6 6 6 7 8 6 5 5 5 5 6 9 12 11 9 12 16 18 18 19 21 21 21 20 19 19 19 20 20 20
17 17 17 18 18 16 14 11 9 10 9 6 6 6 5 7 9 10 12 12 8 6 8 6 4 2 3 4 4 4 3 3 4 4 4 4 3 3 4 5 5 4 4 5 5 4 5 4 3 2 3 4 4 4 6 6 5 5 4 2 3 3 3 3 5 5 6 10 14 16 13 12 15 19 20 20 21 20 19 18 18 17 17 18 19 19 20
16 16 16 16 16 15 12 9 8 9 8 7 6 3 3 2 5 9 13 11 7 6 10 8 2 1 1 3 4 4 3 3 3 4 5 5 5 5 6 6 6 5 5 5 6 7 5 5 5 3 1 2 1 4 4 4 6 4 3 5 3 4 4 6 8 9 9 14 16 15 15 17 19 20 21 20 18 17 17 18 18 18 18 19 19 20 21
15 16 16 16 15 13 10 8 7 7 7 9 9 8 6 2 2 9 13 10 5 5 9 8 4 0 0 3 4 4 4 4 4 5 5 5 5 5 6 5 5 5 5 6 6 6 6 6 6 2 4 4 1 5 3 3 6 2 8 9 4 6 8 10 11 10 11 15 16 15 16 17 18 18 18 17 16 16 18 19 19 19 20 20 20 21 21
14 15 15 14 14 12 10 7 6 6 7 10 10 9 5 2 6 12 11 5 3 5 10 11 6 1 2 0 2 4 6 6 6 6 6 4 5 6 6 6 5 4 5 7 6 6 7 6 6 4 3 4 3 5 4 4 7 3 7 9 7 8 10 12 12 12 13 14 15 15 15 15 15 15 16 16 17 18 19 20 20 20 20 20 20 21 20
13 15 15 13 13 12 9 7 7 7 7 8 8 6 5 7 11 11 6 1 2 6 9 9 6 1 1 1 1 2 5 6 6 7 5 4 5 7 6 5 6 5 5 7 7 6 6 5 6 8 4 3 2 5 4 4 6 4 8 11 10 10 11 13 14 13 13 13 14 15 15 14 15 17 18 19 19 19 19 20 20 19 19 18 18 18 19
12 14 14 13 12 11 8 6 7 8 8 9 7 5 7 13 13 7 3 1 4 6 6 6 5 3 1 2 3 1 4 6 6 7 4 2 2 7 6 6 7 5 4 4 4 5 6 6 7 6 3 3 4 5 4 5 6 7 9 10 11 11 12 13 13 13 12 12 13 13 14 16 18 18 18 19 19 18 18 18 17 17 17 17 17 17 17
12 13 12 11 11 11 10 7 6 6 7 8 4 3 10 15 11 5 2 3 6 6 5 4 5 4 2 3 3 0 4 7 6 5 3 1 2 7 7 6 4 4 5 4 4 6 7 7 7 5 3 4 5 4 4 6 6 7 9 11 11 12 13 13 12 12 12 13 13 13 15 17 18 17 16 16 16 15 15 15 15 16 16 16 15 16 16
12 11 10 10 10 9 8 8 8 7 6 5 5 8 13 13 7 3 2 3 5 7 5 3 3 4 3 3 1 3 4 6 5 5 7 6 4 5 6 5 4 3 3 2 5 8 5 2 3 5 5 4 4 4 4 5 5 7 10 11 11 11 12 12 12 13 13 13 14 14 15 16 15 14 13 13 13 14 14 14 14 14 15 15 16 16 16
12 9 8 8 10 10 8 6 5 5 4 7 9 12 12 8 3 2 3 2 2 5 6 6 4 4 4 5 2 5 6 6 4 5 8 7 5 4 5 6 5 1 1 3 7 7 2 2 0 4 6 5 3 1 2 3 5 7 9 10 10 10 11 11 12 14 14 13 14 14 14 14 13 12 11 12 12 13 13 13 14 14 14 15 16 16 16
8 7 7 7 8 9 7 4 2 4 9 13 11 7 6 4 2 2 2 2 3 5 6 6 4 4 5 6 4 5 6 5 5 6 7 6 5 6 6 6 3 1 2 6 6 4 3 2 2 5 7 5 1 5 6 3 5 6 8 10 10 10 10 10 11 13 13 14 14 14 14 13 12 11 11 11 11 11 11 12 13 13 14 14 15 15 15
4 5 8 8 8 8 4 4 8 13 15 13 8 4 4 3 3 4 4 4 5 5 6 7 5 4 6 6 4 3 4 5 6 6 4 2 4 4 4 4 2 1 3 5 1 1 4 5 3 5 7 3 3 5 4 3 5 6 8 10 10 10 10 10 10 11 12 13 14 14 14 13 11 11 10 9 9 9 10 11 12 12 12 13 13 14 14
6 6 7 7 7 5 5 9 15 14 9 6 4 3 4 3 3 4 4 5 5 4 4 5 5 4 5 6 5 3 3 5 7 6 3 3 3 3 2 3 1 0 5 5 2 3 4 6 4 5 5 2 6 4 2 4 5 7 9 10 10 9 9 9 9 9 10 11 11 10 10 9 8 8 8 8 8 8 9 10 11 11 12 12 13 14 15
8 8 7 6 7 5 6 10 13 9 5 4 4 3 3 4 4 3 3 3 4 4 3 3 4 4 3 5 6 4 3 4 5 5 4 4 3 2 3 4 3 2 6 4 3 3 4 5 4 4 3 3 4 1 3 5 6 7 9 10 9 8 7 8 8 9 9 9 8 6 5 5 5 6 7 7 7 8 8 9 10 11 12 13 15 15 16
8 7 6 7 8 7 6 7 8 5 4 6 5 2 2 5 5 3 3 3 4 3 3 3 4 3 2 3 6 5 3 2 4 6 6 4 2 2 4 5 4 3 5 3 0 1 4 4 5 5 1 4 4 2 4 5 7 9 9 10 9 7 6 8 8 8 7 6 5 3 3 3 5 6 7 8 8 7 8 9 10 11 12 14 14 14 15
6 6 8 9 8 7 6 6 7 5 3 4 3 2 3 4 4 4 4 3 2 1 1 2 3 4 3 3 7 7 3 2 3 6 6 4 2 3 4 4 3 3 5 5 5 4 4 4 6 4 4 8 6 3 5 6 8 10 10 9 7 6 6 8 8 6 5 4 2 2 3 5 6 6 6 7 7 7 8 10 11 12 13 14 15 15 14
3 5 8 8 7 6 6 6 5 4 2 2 2 2 3 4 3 3 4 3 2 2 1 2 3 5 3 2 4 6 5 3 4 6 6 5 4 4 4 3 3 4 5 5 5 5 5 5 5 5 4 6 5 3 4 5 8 10 9 7 5 5 7 7 5 4 2 2 3 4 4 4 4 3 4 5 6 6 7 9 12 13 13 13 15 17 16
4 5 7 6 5 4 3 3 4 4 3 3 3 3 4 4 4 3 2 1 2 3 4 4 5 6 4 2 4 7 6 4 3 3 6 6 5 4 4 4 4 5 6 5 5 5 5 4 6 9 8 1 6 6 3 6 10 10 9 7 6 5 6 5 3 1 2 4 4 4 4 3 2 2 4 6 6 5 6 8 10 10 10 10 11 14 16
7 7 5 4 4 3 2 2 3 4 4 4 4 4 5 4 3 3 1 2 1 5 7 7 7 8 8 7 5 6 6 3 3 3 4 4 3 3 4 4 5 5 5 5 5 5 5 6 6 4 1 7 9 5 5 9 10 9 8 7 6 4 4 3 1 2 4 5 4 4 3 2 3 4 5 5 5 4 5 6 6 7 7 8 9 10 12
8 7 4 3 4 4 4 3 2 3 4 5 6 7 6 6 5 6 4 3 5 7 7 7 8 8 9 8 6 6 7 6 4 4 4 4 3 4 5 6 6 4 4 6 6 5 6 6 1 7 10 9 5 3 7 8 7 7 8 7 5 3 2 1 1 4 5 5 4 3 2 2 3 4 4 4 3 4 4 5 5 6 7 8 8 8 8
8 7 5 5 4 4 5 5 6 7 8 8 8 9 9 8 7 7 6 6 7 7 6 7 8 8 8 8 7 7 8 7 5 5 5 4 4 4 5 5 5 4 5 7 6 5 6 4 6 12 9 4 3 5 7 8 6 7 7 6 5 3 1 1 4 5 6 6 5 3 2 1 2 2 2 3 3 3 4 5 6 6 7 8 8 8 7
7 6 5 4 3 3 5 7 9 12 13 13 11 11 10 9 8 7 7 6 6 7 7 7 7 7 7 6 5 6 6 6 5 6 6 5 3 3 4 4 4 4 5 6 5 6 7 3 9 11 5 1 2 4 6 7 6 7 7 6 4 4 2 3 5 7 8 7 5 4 2 1 1 0 1 2 3 3 3 4 5 6 7 7 8 9 8
6 6 6 5 5 7 10 12 12 12 13 13 13 11 11 10 10 9 8 7 7 7 7 7 7 6 5 5 5 5 6 5 4 4 5 5 4 3 4 5 6 6 6 5 5 7 8 4 5 8 5 3 1 3 6 6 7 8 7 5 4 4 4 5 7 8 9 8 7 5 3 2 2 1 0 1 1 2 2 3 4 5 6 7 8 9 9
6 7 8 9 8 10 12 13 11 9 11 12 13 12 11 11 11 10 8 7 8 7 7 7 7 6 4 4 4 4 4 5 4 4 5 5 5 5 6 7 7 6 5 6 7 8 9 8 6 4 4 3 2 4 6 6 8 8 7 5 5 5 5 5 7 10 10 9 8 6 5 4 3 3 2 1 1 1 2 3 3 4 5 6 7 8 9
5 7 9 11 11 12 12 11 10 9 10 12 13 12 10 10 11 9 4 4 6 7 7 7 7 5 4 4 4 3 4 4 5 5 6 6 5 5 6 7 7 6 8 10 12 11 9 9 8 4 1 2 5 6 6 8 9 8 7 6 6 6 6 6 7 10 11 11 9 8 7 6 5 4 3 2 2 3 2 1 2 2 3 4 5 6 7
6 7 9 12 14 15 15 15 15 15 15 15 16 14 12 11 11 9 5 4 6 9 9 9 7 5 3 4 5 4 4 4 5 6 6 5 5 6 7 8 9 10 12 13 12 11 10 9 7 4 4 7 10 9 8 8 8 8 7 7 6 7 8 7 8 10 11 12 11 10 9 7 6 6 5 4 5 5 4 2 0 1 1 2 3 5 5
Wind_Direction
9 7 5 5 4 1 360 357 351 345 344 347 348 341 310 260 260 206 191 207 202 205 240 246 230 240 250 253 255 254 258 265 264 265 259 248 244 251 261 273 273 272 277 278 272 266 266 267 266 267 269 53 85 93 98 87 81 18 283 306 40 34 271 261 270 274 280 279 274 272 262 237 252 270 271 272 276 275 269 277 286 273 272 277 278 274 228
10 8 6 6 5 3 2 359 356 352 346 344 344 339 317 290 286 257 206 199 206 219 243 243 238 247 247 249 256 258 261 260 259 264 262 257 256 254 263 280 280 280 284 280 274 276 277 271 271 274 273 104 102 108 98 87 275 12 32 15 30 339 254 243 263 273 275 267 254 252 247 228 230 270 284 283 287 280 266 275 290 273 273 275 270 277 263
10 9 7 7 7 6 4 1 1 0 351 341 335 328 314 302 291 258 219 189 203 229 247 255 261 272 269 268 263 260 261 257 258 274 285 281 282 285 284 283 282 287 289 283 277 278 277 270 268 274 270 146 130 156 132 104 352 42 51 47 14 291 278 277 270 267 272 270 266 287 312 303 286 286 286 287 296 292 280 282 287 274 278 274 269 284 148
12 11 8 8 9 8 7 5 4 7 359 341 332 327 307 292 294 267 234 209 224 238 244 254 263 275 286 290 280 266 260 250 247 262 285 281 276 284 288 280 282 287 286 286 283 273 270 271 269 266 261 241 170 163 177 149 85 63 45 29 336 285 277 277 271 268 274 281 293 314 323 309 290 286 282 277 285 298 300 287 272 278 298 286 275 293 301
13 12 10 10 11 11 10 8 9 10 3 344 329 319 295 281 308 348 332 297 271 248 240 255 268 271 277 282 282 270 260 260 247 199 258 282 278 281 285 279 276 278 274 279 286 283 279 277 274 265 260 269 130 123 159 162 105 84 12 309 260 274 259 256 262 265 269 277 286 296 299 293 286 284 282 279 281 285 276 261 270 281 285 274 282 310 313
14 13 12 11 12 14 13 11 14 11 3 2 353 338 340 336 325 8 22 329 276 290 329 327 319 310 301 291 293 287 271 273 266 210 253 306 302 280 277 275 270 269 268 263 266 276 275 276 288 286 270 269 169 126 164 132 114 116 279 248 214 253 258 254 260 262 266 272 276 281 283 283 282 282 284 286 287 282 270 265 278 285 281 277 290 302 295
14 14 14 13 12 17 16 14 19 14 7 25 26 13 16 8 341 357 5 329 289 330 345 328 312 309 312 303 298 291 278 280 281 263 272 320 310 296 287 285 284 278 271 268 274 308 312 306 326 334 315 294 291 270 242 190 154 170 251 247 200 225 259 267 273 274 276 277 278 284 285 283 282 280 278 279 280 280 277 272 271 272 275 282 288 288 285
14 14 15 15 13 17 18 17 20 16 14 35 36 27 17 4 347 346 342 325 314 326 320 298 289 292 307 302 295 287 281 293 292 276 272 318 319 315 307 308 312 302 285 284 341 46 34 0 352 353 343 326 301 294 291 277 265 255 263 255 151 154 273 301 300 287 285 285 284 284 281 281 283 281 283 289 286 280 279 279 276 272 274 283 288 288 285
14 14 16 16 16 16 17 20 21 18 21 35 33 22 10 359 348 337 329 320 324 321 300 276 279 307 2 341 326 314 297 301 299 294 311 327 325 334 333 328 325 316 312 350 34 36 18 356 346 338 329 319 309 307 306 304 299 286 273 260 171 165 266 299 300 283 282 285 282 281 285 286 282 281 291 298 290 281 280 278 276 276 280 287 291 292 290
14 15 16 17 18 17 17 19 22 20 25 37 32 11 5 5 356 345 335 311 300 307 307 309 325 351 353 343 337 328 316 317 326 334 333 315 308 351 359 337 314 314 358 19 18 2 340 326 324 320 309 296 289 287 283 284 288 283 275 272 249 243 261 274 280 278 284 288 289 299 307 294 279 281 299 296 285 287 289 280 277 280 280 277 272 274 285
14 15 17 18 18 19 18 18 22 21 25 38 34 5 360 3 348 337 336 313 303 330 356 20 35 12 349 348 344 339 335 333 347 3 352 338 343 8 12 347 325 348 22 0 343 333 317 302 297 293 287 283 280 278 275 273 271 263 256 255 251 256 261 265 272 272 279 289 297 302 290 270 270 288 313 311 300 298 302 306 310 308 301 296 289 284 292
14 15 17 18 18 20 20 18 21 22 24 37 39 9 359 3 351 337 338 327 343 19 21 25 37 18 2 2 352 350 354 345 354 5 342 331 344 351 1 357 349 360 356 337 328 324 308 294 280 268 265 265 264 263 262 262 262 257 253 252 247 246 254 262 269 268 274 286 290 278 262 261 284 286 296 329 320 307 309 307 307 315 326 328 314 296 298
14 15 16 18 18 20 21 19 21 22 22 33 38 14 359 7 7 354 349 335 350 23 18 18 28 15 0 0 349 339 342 332 337 347 333 330 337 331 339 353 343 341 338 328 322 318 307 297 286 274 268 262 257 256 255 253 253 251 251 255 254 252 256 262 268 268 273 275 263 258 270 288 293 297 331 11 336 304 298 287 295 326 341 338 325 313 313
14 15 15 17 18 19 21 20 21 22 21 33 41 16 358 10 13 359 354 340 339 21 26 18 17 3 347 350 350 333 328 330 324 325 334 345 322 302 307 326 326 327 326 319 313 303 292 292 288 279 274 265 259 259 256 253 251 248 247 249 250 253 255 252 253 254 260 267 264 267 282 286 285 323 24 31 18 4 340 303 314 319 315 332 345 343 335
14 15 15 16 16 18 21 19 20 23 22 35 47 18 357 8 13 357 354 337 313 19 37 22 358 344 333 336 346 339 333 339 327 297 277 297 311 297 293 317 328 325 315 305 297 285 277 280 277 271 269 264 259 260 260 258 252 248 248 245 239 235 234 234 240 245 252 264 270 270 274 279 317 60 54 40 35 32 14 339 325 330 4 32 27 13 358
14 15 15 15 15 16 19 18 19 24 24 33 50 27 357 3 12 5 358 337 309 5 32 12 354 342 333 339 352 359 358 341 327 316 295 138 318 306 325 10 335 318 308 294 274 266 276 268 262 268 265 260 264 266 267 263 250 251 302 272 243 229 225 234 246 250 251 257 264 264 263 284 48 55 52 41 30 9 331 290 303 18 34 37 26 9 3
13 14 14 15 14 14 18 18 18 25 29 34 47 35 358 357 8 15 357 334 325 37 38 13 360 354 350 356 1 3 356 339 328 317 309 38 323 314 0 7 333 294 298 305 278 254 260 256 256 266 261 263 278 285 282 272 256 185 56 313 256 251 246 243 246 247 246 248 253 259 260 40 36 23 29 35 19 346 299 241 272 10 14 14 2 352 347
11 12 12 13 12 11 15 18 20 28 38 45 52 46 1 352 1 16 358 336 336 46 41 16 7 10 2 342 336 342 344 344 340 316 301 17 22 349 340 342 331 294 289 301 282 266 273 265 260 272 273 276 291 299 311 312 285 256 220 217 233 260 262 254 252 249 245 245 251 254 230 58 8 354 359 6 358 336 282 247 290 346 350 352 350 339 331
9 9 9 9 9 8 10 15 20 31 44 45 48 51 10 351 358 26 21 356 352 33 37 20 10 15 9 350 346 354 355 358 1 341 320 23 17 344 316 317 343 340 314 301 297 299 288 271 269 287 284 285 311 319 317 316 305 298 293 260 236 245 265 262 257 256 256 258 261 260 245 46 342 342 353 353 335 317 330 317 312 320 331 337 335 326 322
8 8 7 6 5 4 6 10 14 28 49 48 41 47 22 350 4 39 33 3 350 18 38 27 14 15 22 23 23 17 7 2 1 356 354 2 354 343 330 4 3 335 325 337 336 326 318 303 310 331 305 302 353 354 310 293 281 289 299 283 273 286 276 263 259 267 274 269 264 267 269 326 322 334 5 20 6 345 335 327 322 324 328 327 322 319 316
6 7 6 4 4 2 2 6 8 16 40 49 40 44 27 353 4 36 25 351 344 9 26 26 26 29 30 31 29 19 16 18 8 1 353 338 339 349 12 18 3 353 357 356 335 335 355 323 316 339 311 298 301 285 293 295 291 303 334 312 300 304 280 273 288 319 286 264 267 269 217 244 293 342 12 22 358 335 326 321 317 317 318 312 307 309 310
2 4 4 1 2 1 359 3 5 6 21 34 39 46 25 358 0 24 12 338 329 351 358 16 35 36 41 54 49 26 24 36 24 5 356 341 343 8 25 10 11 12 5 354 335 338 349 322 318 340 320 308 311 307 307 296 276 325 40 284 290 0 4 323 309 337 308 292 305 313 267 272 342 15 8 334 324 319 314 311 306 307 313 315 313 318 323
356 359 1 359 359 360 358 0 3 4 19 36 50 55 28 1 359 13 10 348 300 307 317 343 14 3 48 55 40 23 36 50 34 17 11 356 355 28 37 16 5 0 6 8 349 333 337 333 335 341 327 323 322 312 309 290 273 316 343 230 128 41 21 348 311 310 314 307 308 312 310 321 345 347 322 312 316 314 311 312 311 314 321 323 319 316 317
351 353 357 357 356 358 358 360 2 5 22 44 56 50 31 7 357 1 2 359 344 322 304 69 25 358 1 10 1 15 55 38 20 21 22 360 350 8 21 7 352 341 360 3 336 316 313 314 323 319 313 336 338 311 305 299 294 357 352 276 100 50 28 346 298 297 308 306 305 316 327 336 339 330 321 321 318 314 317 320 321 320 317 314 312 308 304
346 349 353 354 355 356 358 0 2 5 17 39 55 45 29 9 0 1 358 351 337 319 286 106 60 21 335 346 4 24 32 9 358 8 3 341 334 335 342 349 343 327 331 336 325 314 306 301 312 301 293 352 3 321 318 338 340 0 354 294 301 32 24 341 303 300 302 298 312 337 346 344 335 324 320 318 316 317 320 318 316 315 310 305 304 301 297
343 348 351 353 354 355 358 1 3 8 14 26 48 46 30 7 4 11 8 352 329 302 276 80 54 21 2 34 17 9 9 1 355 352 340 319 308 324 336 342 336 324 321 318 312 314 308 297 301 298 293 31 28 327 308 330 323 310 304 300 307 322 335 334 328 317 301 296 323 348 348 333 318 316 316 317 322 323 319 313 309 307 305 302 300 298 295
343 350 353 354 354 356 1 5 9 13 15 23 49 54 35 7 6 12 7 360 348 310 297 39 43 21 18 26 348 308 339 359 346 339 341 331 313 320 329 326 326 333 332 321 309 303 297 294 305 306 299 328 344 314 293 305 310 294 286 303 319 320 324 346 345 315 300 312 327 334 329 312 312 318 316 315 318 315 311 310 309 307 306 306 303 301 300
346 353 355 354 354 359 5 10 20 28 28 39 64 65 37 14 13 360 350 0 7 329 321 348 26 35 26 16 336 308 330 0 350 344 344 336 325 319 310 303 303 308 311 307 294 275 272 288 309 304 293 308 317 304 302 302 285 271 270 291 356 350 333 335 333 320 312 316 318 319 316 308 307 310 310 310 312 310 310 313 314 314 315 314 310 308 306
348 353 355 354 354 0 8 12 26 37 36 35 39 12 298 331 10 345 341 358 12 325 312 314 292 230 331 357 353 342 337 343 346 340 329 319 312 302 293 291 294 295 292 286 283 283 282 284 287 285 76 69 345 295 303 296 276 287 50 79 53 353 330 326 334 333 317 312 315 316 311 305 306 309 310 312 315 318 320 320 317 315 314 312 310 310 308
346 351 354 353 352 358 6 13 23 34 30 18 359 321 284 259 356 342 346 2 12 321 309 309 306 279 9 348 347 335 322 330 338 327 316 320 320 302 295 305 307 300 295 283 273 284 297 292 286 274 122 110 287 281 287 288 278 321 65 68 22 337 335 331 331 326 309 308 316 317 310 309 312 313 313 317 325 328 324 318 315 315 314 314 312 309 308
344 347 351 352 353 355 0 9 18 22 21 12 352 328 315 331 329 329 341 10 20 316 300 296 294 216 153 147 325 312 319 341 345 317 287 280 300 303 304 314 303 279 287 292 281 285 295 295 292 280 201 157 211 268 294 297 273 278 50 37 4 346 341 329 324 321 314 316 322 321 317 319 323 322 320 322 324 323 319 316 316 316 315 314 313 312 311
340 346 351 352 353 353 355 10 27 32 29 17 1 349 345 332 320 315 315 1 359 321 301 294 297 279 188 213 223 288 311 325 323 302 267 247 301 315 307 291 282 275 288 299 297 296 299 300 299 294 275 157 190 272 280 272 266 298 8 5 350 345 339 328 323 323 325 331 332 327 323 324 325 322 320 319 319 319 317 317 318 320 319 317 315 314 312
339 347 353 355 358 2 6 21 45 54 40 16 7 7 348 337 330 316 277 284 332 316 294 297 315 327 287 237 207 242 320 312 297 290 259 184 324 322 301 273 275 270 248 253 274 283 276 269 275 280 245 178 227 268 268 261 278 318 344 339 333 336 332 324 323 324 328 333 333 324 317 317 318 317 315 315 317 319 320 322 324 327 327 323 318 318 318
343 348 360 13 19 20 22 32 49 50 23 2 352 324 327 333 332 305 261 342 338 305 263 266 300 306 259 220 197 125 341 321 305 302 307 66 356 324 314 303 288 248 208 218 269 277 266 261 264 265 246 230 243 254 264 275 297 326 330 325 330 333 326 323 328 330 329 329 326 319 315 316 319 319 318 319 323 327 331 335 336 336 335 332 330 330 330
345 355 15 29 24 14 16 28 29 18 357 334 296 289 308 325 331 300 293 346 319 294 278 269 291 298 291 271 148 75 351 314 306 312 313 312 306 303 307 310 296 244 186 209 277 279 274 274 278 273 270 268 260 250 259 283 313 328 322 322 332 332 326 328 330 328 328 327 323 321 322 325 329 331 330 332 338 342 343 343 343 344 344 342 340 341 338
351 6 21 21 8 353 341 350 13 16 342 313 300 295 302 318 333 322 349 12 293 293 315 321 315 328 324 311 353 32 355 324 312 301 298 298 296 290 292 297 299 285 169 245 271 277 282 89 21 275 269 269 280 14 55 4 336 325 318 322 333 333 329 329 327 325 327 327 324 326 330 332 337 342 345 346 348 348 349 352 355 356 354 350 349 350 348
1 20 22 7 344 327 315 307 312 303 303 308 311 305 306 320 305 271 312 315 259 265 290 295 302 340 331 310 325 354 339 324 316 309 306 311 308 295 281 282 302 3 269 262 260 254 242 218 255 277 274 276 340 72 77 34 333 329 327 328 333 332 328 326 326 325 326 325 327 332 335 338 346 356 356 355 356 357 0 3 2 360 358 358 357 357 355
358 16 8 343 309 298 307 318 307 301 302 310 320 307 286 293 271 246 244 238 233 243 255 261 274 305 308 301 318 341 328 319 316 314 320 326 305 289 269 271 305 16 289 287 324 148 252 257 258 272 272 265 102 95 83 10 342 341 335 332 333 331 327 328 328 327 327 328 330 332 335 340 352 1 1 2 8 10 10 11 9 6 5 4 1 0 2
354 348 346 328 310 327 351 319 306 306 314 331 330 291 271 267 260 260 249 226 222 234 242 249 263 283 297 308 319 322 315 313 306 301 312 327 316 319 311 304 348 347 281 290 61 97 265 270 268 271 270 132 112 103 30 0 351 340 336 336 334 327 325 328 329 327 327 327 326 329 336 342 351 3 9 13 17 20 22 21 17 13 11 12 13 11 9
349 339 333 316 306 317 322 309 309 321 341 318 292 275 274 269 257 267 288 268 250 233 209 231 266 271 277 303 311 304 294 304 303 305 318 317 306 304 306 309 336 326 291 285 112 125 271 284 284 279 285 100 105 56 341 347 343 341 341 337 330 326 327 330 331 332 332 329 326 333 346 354 8 23 25 24 28 31 27 22 17 15 17 21 21 19 15
333 328 322 312 304 304 312 309 305 306 300 289 280 260 266 268 258 257 276 275 264 239 206 233 282 282 226 258 292 292 287 300 302 298 297 294 271 260 287 295 303 295 283 285 293 242 271 279 282 281 296 93 82 25 0 351 342 345 345 337 329 328 329 332 336 340 338 334 336 351 24 47 52 47 40 39 40 33 25 23 22 22 24 26 24 19 15
323 332 333 331 325 322 321 298 274 256 258 280 278 254 250 253 253 257 251 239 254 291 205 215 291 307 301 288 293 293 292 320 309 291 282 280 276 267 275 288 293 272 271 288 300 290 271 271 280 271 156 132 117 45 16 4 347 343 343 339 335 334 337 341 346 349 347 349 19 70 75 68 59 51 46 44 39 30 31 35 34 32 32 33 30 23 15
351 335 330 331 322 304 287 267 244 220 215 242 235 236 251 242 228 242 248 227 220 244 217 210 278 293 294 295 294 288 276 272 283 281 274 270 271 271 273 275 272 274 283 289 282 272 267 271 281 271 216 162 135 83 28 7 351 343 342 342 336 335 344 349 352 357 17 68 97 97 85 72 63 57 58 53 43 33 28 23 20 22 23 20 18 19 17
1 306 288 288 291 284 266 237 206 191 208 227 212 223 248 242 221 231 240 161 178 237 259 272 284 285 282 284 294 289 277 245 207 253 278 280 273 269 269 262 265 279 288 282 267 268 273 267 264 269 269 228 104 98 48 357 351 348 347 341 330 332 348 357 3 49 107 122 118 101 89 80 64 61 71 68 56 37 17 5 6 11 10 1 1 7 10
333 307 278 275 286 271 231 215 202 203 224 235 220 232 258 273 279 285 308 108 205 275 284 287 286 286 287 287 286 281 272 237 183 211 269 285 282 269 266 270 278 281 278 272 272 272 272 273 276 280 68 92 93 80 9 356 354 346 338 331 322 328 351 357 5 140 141 140 126 107 95 79 48 47 63 72 61 36 19 10 5 3 2 360 2 4 2
308 293 273 272 267 240 227 230 216 215 231 226 217 231 259 287 301 306 314 310 289 286 288 289 287 286 285 281 270 258 258 257 253 257 265 265 263 265 270 278 281 272 264 271 274 269 271 282 313 101 105 103 92 31 3 1 349 330 326 324 313 316 349 1 172 162 157 152 138 119 98 76 56 47 49 53 45 28 20 14 8 7 7 5 4 7 8
300 281 264 263 259 241 234 238 239 249 263 268 261 264 280 297 304 300 298 297 293 290 288 287 287 286 281 275 268 259 253 249 250 261 267 266 265 266 270 272 268 258 261 267 264 267 280 279 131 125 124 118 82 36 11 357 333 317 322 318 296 283 288 182 177 173 169 165 156 144 125 93 70 56 46 44 40 30 19 10 10 14 15 9 3 5 13
300 288 271 263 258 240 240 251 257 259 265 274 277 275 274 279 282 281 281 283 284 283 281 280 282 283 274 262 255 257 259 255 249 247 249 254 264 268 264 259 253 251 262 264 257 266 277 238 140 134 132 91 71 34 358 342 320 311 317 312 285 261 226 191 186 183 181 179 177 173 172 177 184 144 71 50 36 24 15 9 9 12 14 14 12 10 14
281 279 269 261 267 272 275 280 282 278 275 280 284 278 268 263 265 271 277 275 269 270 274 274 275 279 276 265 257 255 252 249 249 246 237 236 243 245 243 250 255 256 258 259 260 271 278 261 160 149 152 150 136 338 337 331 311 305 312 309 279 250 215 192 189 190 190 192 193 195 200 209 212 213 233 355 4 2 5 8 11 13 16 19 20 21 25
254 256 253 251 262 279 284 284 284 281 280 282 282 279 274 269 266 269 275 270 261 262 266 260 252 257 271 275 275 269 251 243 247 251 244 239 242 243 244 250 257 259 263 272 276 279 286 287 272 231 184 173 260 312 328 320 301 296 301 296 266 234 208 197 193 193 196 200 201 203 212 218 214 221 239 242 240 291 343 7 15 14 16 20 22 22 27
238 242 248 249 255 269 280 284 284 284 286 286 287 291 293 283 270 267 274 269 255 255 256 252 246 246 252 248 244 255 269 261 248 243 244 244 244 245 246 248 252 259 269 276 281 285 291 292 285 269 220 265 286 298 312 306 293 288 290 286 258 224 210 206 197 194 200 206 207 209 215 217 218 228 238 234 236 258 284 348 35 25 13 16 23 25 26
228 241 259 263 264 269 274 277 278 280 281 281 283 287 290 282 272 268 269 262 251 250 256 261 256 242 230 233 239 250 266 263 246 243 248 248 244 247 253 258 264 270 273 275 278 282 286 285 278 265 268 281 283 284 287 288 282 278 279 277 257 226 212 208 203 202 206 208 209 211 216 221 226 231 236 244 253 255 247 226 103 38 17 15 26 34 38